GRAND BAY MS US current weather conditions

sailwx.info

Air temperature 5.0° C
Dewpoint 0.2° C

Last reported at 2019-Dec-12 06:25 UTC.
Time now 2019-Dec-12 09:00 UTC

Location: N 30°26' W 088°26'.
View on Google Maps.

See reports from other nearby stations

  
Tides and Currents Weather Stations Pressure Air Temp Water Temp Dewpoint Dewpoint Depression Visibility Wind Speed Wind Dir Waves Ship Positions
date/time (UTC)wind fromknots sea level pressurealtimeterstation pressurevisibilityair tempwater tempwave heightnotes
2019-Dec-12 06:25 5.0
2019-Dec-12 05:25 5.6
2019-Dec-12 04:25 6.1
2019-Dec-12 03:25 7.2
2019-Dec-12 02:25 8.3
2019-Dec-12 01:25 9.4
2019-Dec-12 00:25 9.4
2019-Dec-11 23:25 10.0
2019-Dec-11 22:25 11.1
2019-Dec-11 21:25 12.2
2019-Dec-11 20:25 11.1
2019-Dec-11 19:25 10.6
2019-Dec-11 18:25 016 1 gusting 13 9.4
2019-Dec-11 17:25 013 6 gusting 17 8.3
2019-Dec-11 16:25 032 5 gusting 12 8.3
2019-Dec-11 15:25 010 4 gusting 10 6.7
2019-Dec-11 14:25 017 2 gusting 13 6.1
2019-Dec-11 13:25 008 6 gusting 13 5.6
2019-Dec-11 12:25 012 6 gusting 17 5.6
2019-Dec-11 11:25 020 5 gusting 17 6.1
2019-Dec-11 10:25 031 6 gusting 15 6.1
2019-Dec-11 09:25 032 6 gusting 18 6.7
2019-Dec-11 08:25 024 7 gusting 17 7.8
2019-Dec-11 07:25 007 6 gusting 18 7.8
2019-Dec-11 06:25 034 6 gusting 16 7.8
2019-Dec-11 05:25 017 6 gusting 23 7.8
2019-Dec-11 04:25 013 6 gusting 19 10.0
2019-Dec-11 03:25 010 6 gusting 19 10.0
2019-Dec-11 02:25 357 6 gusting 17 11.1
2019-Dec-11 01:25 015 6 gusting 19 11.1
2019-Dec-11 00:25 005 6 gusting 19 11.7
2019-Dec-10 23:25 010 6 gusting 16 12.2
2019-Dec-10 22:25 013 6 gusting 17 12.2
2019-Dec-10 21:25 008 6 gusting 16 13.3
2019-Dec-10 20:25 357 5 gusting 16 14.4
2019-Dec-10 19:25 340 8 gusting 17 17.8
2019-Dec-10 18:25 195 5 gusting 10 25.6
2019-Dec-10 17:25 187 4 gusting 9 23.9
2019-Dec-10 16:25 188 4 gusting 9 25.0
2019-Dec-10 15:25 191 2 gusting 7 22.8
2019-Dec-10 14:25 20.6
2019-Dec-10 13:25 201 1 gusting 6 20.6
2019-Dec-10 12:25 188 2 gusting 7 20.6
2019-Dec-10 11:25 180 1 gusting 8 20.0
2019-Dec-10 10:25 187 2 gusting 8 20.0
2019-Dec-10 09:25 171 2 gusting 6 20.0